Location: Austin, TX
(30.3000°N, 97.7500°W)
Time: 17:09:55
(UTC-05:00)

Cosmos 1666 - Visible Passes

Search period start: 21 September 2014 00:00
Search period end: 01 October 2014 00:00
Orbit: 518 x 542 km, 82.5° (Epoch: 21 September)

Date Brightness Start Highest point End Pass type
(mag) Time Alt. Az. Time Alt. Az. Time Alt. Az.
21 Sep 5.5 06:03:04 10° NNE 06:06:13 22° ENE 06:09:20 10° SE visible
21 Sep 5.1 19:49:31 10° SW 19:52:58 30° W 19:56:27 10° NNW visible
22 Sep 5.6 05:52:39 10° NNE 05:55:40 21° ENE 05:58:40 10° SE visible
23 Sep 5.7 05:42:14 10° NNE 05:45:07 19° ENE 05:47:59 10° SE visible
24 Sep 5.7 05:31:50 10° NE 05:34:34 18° ENE 05:37:16 10° ESE visible
25 Sep 5.8 05:21:27 10° NE 05:24:00 16° ENE 05:26:31 10° ESE visible
25 Sep 3.9 06:56:48 10° NW 06:59:54 22° W 07:02:59 10° SW visible
26 Sep 5.9 05:11:05 10° NE 05:13:25 15° ENE 05:15:44 10° ESE visible
26 Sep 3.8 06:46:09 10° NW 06:49:22 24° W 06:52:33 10° SW visible
27 Sep 5.9 05:00:44 10° NE 05:02:50 14° ENE 05:04:55 10° ESE visible
27 Sep 3.7 06:35:30 10° NNW 06:38:49 26° W 06:42:06 10° SSW visible
28 Sep 6.0 04:50:26 10° NE 04:52:15 13° ENE 04:54:02 10° ESE visible
28 Sep 3.6 06:24:51 10° NNW 06:28:16 29° W 06:31:38 10° SSW visible
29 Sep 6.0 04:40:11 10° NE 04:41:38 12° ENE 04:43:05 10° E visible
29 Sep 3.4 06:14:12 10° NNW 06:17:42 31° W 06:21:09 10° SSW visible
30 Sep 4.9 06:03:33 10° NNW 06:04:09 14° NNW 06:04:09 14° NNW visible
